Location: ????
(55.2778°N, 39.2433°E)
Time: 05:58:46
(UTC+00:00)

Lacrosse 4 Rocket - Visible Passes

Search period start: 16 July 2024 00:00
Search period end: 26 July 2024 00:00
Orbit: 526 x 593 km, 68.0° (Epoch: 15 July)

Date Brightness Start Highest point End Pass type
(mag) Time Alt. Az. Time Alt. Az. Time Alt. Az.
16 Jul 2.6 21:42:59 20° SSE 21:44:48 28° ESE 21:48:20 10° ENE visible
16 Jul 1.9 23:18:52 10° WSW 23:22:51 53° NW 23:26:57 10° NE visible
17 Jul 2.2 21:41:07 22° SSE 21:43:01 35° ESE 21:46:48 10° NE visible
17 Jul 2.3 23:17:18 10° WSW 23:21:13 44° NW 23:25:15 10° NNE visible
18 Jul 1.8 21:39:13 24° S 21:41:15 44° ESE 21:45:13 10° NE visible
18 Jul 2.6 23:15:48 10° WSW 23:19:37 37° NW 23:23:32 10° NNE visible
19 Jul 1.5 21:37:15 24° SSW 21:39:30 57° ESE 21:43:35 10° NE visible
19 Jul 2.9 23:14:19 10° W 23:18:00 32° NW 23:21:48 10° NNE visible
20 Jul 3.4 19:59:22 12° ESE 20:00:16 12° ESE 20:01:57 10° E visible
20 Jul 1.3 21:35:14 22° SSW 21:37:45 73° SE 21:41:55 10° NE visible
20 Jul 3.2 23:12:51 10° W 23:16:25 28° NNW 23:20:04 10° NNE visible
21 Jul 3.1 19:57:18 14° SE 19:58:22 16° ESE 20:00:52 10° ENE visible
21 Jul 1.3 21:33:09 19° SW 21:36:01 90° WNW 21:40:13 10° NE visible
21 Jul 3.4 23:11:24 10° W 23:14:49 25° NNW 23:18:19 10° NNE visible
22 Jul 2.8 19:55:08 17° SE 19:56:30 20° ESE 19:59:32 10° ENE visible
22 Jul 1.5 21:31:00 15° SW 21:34:17 73° NW 21:38:29 10° NE visible
22 Jul 3.7 23:09:58 10° WNW 23:13:14 22° NNW 23:16:35 10° NNE visible
23 Jul 2.5 19:52:53 19° SSE 19:54:37 25° ESE 19:58:03 10° ENE visible
23 Jul 1.9 21:28:44 11° SW 21:32:36 59° NW 21:36:45 10° NE visible
23 Jul 3.9 23:08:34 10° WNW 23:11:41 20° NNW 23:14:50 10° NNE visible
24 Jul 2.2 19:50:32 19° SSE 19:52:47 32° ESE 19:56:29 10° NE visible
24 Jul 2.3 21:26:55 10° WSW 21:30:54 48° NW 21:35:00 10° NE visible
24 Jul 4.0 23:07:09 10° WNW 23:10:06 18° NNW 23:13:06 10° NNE visible
25 Jul 1.8 19:48:02 16° S 19:50:55 40° ESE 19:54:51 10° NE visible
25 Jul 2.6 21:25:19 10° WSW 21:29:13 40° NW 21:33:13 10° NNE visible
25 Jul 4.1 23:05:43 10° WNW 23:08:32 17° NNW 23:11:23 10° NNE visible
